When you browse on this site, cookies collect data to enhance your experience and personalize the content and advertising you see.
Visit our Privacy Policy to learn more. By continuing to use the site, you agree to this use of cookies and data.
  • In Österreich
  • Länderverzeichnis
  • Für 7 Tage
  • Wassertemperatur
  • Satellitenkarten
  • Wetterkarte
  • News
  • Widgets
  • user-avatar
    Anmelden

    Stündliche Wetter Campeche

    Heute, 12 Dezember, Mittwoch

    Zeit Temperatur Niederschläge Wind Luftdruck Luftfeuchtigkeit
    00:00 +18°C° 0 mm 1 m/S 765 mmHg 84%
    01:00 +16°C° 0 mm 1 m/S 765 mmHg 85%
    02:00 +16°C° 0 mm 1 m/S 764 mmHg 86%
    03:00 +16°C° 0 mm 1 m/S 764 mmHg 87%
    04:00 +15°C° 0 mm 1 m/S 764 mmHg 88%
    05:00 +15°C° 0 mm 1 m/S 764 mmHg 88%
    06:00 +15°C° 0 mm 1 m/S 764 mmHg 88%
    07:00 +18°C° 0 mm 1 m/S 764 mmHg 78%
    08:00 +20°C° 0 mm 1 m/S 764 mmHg 68%
    09:00 +23°C° 0 mm 1 m/S 765 mmHg 58%
    10:00 +25°C° 0 mm 1 m/S 764 mmHg 51%
    11:00 +27°C° 0 mm 1 m/S 763 mmHg 44%
    12:00 +29°C° 0 mm 1 m/S 763 mmHg 37%
    13:00 +30°C° 0 mm 1 m/S 762 mmHg 36%
    14:00 +30°C° 0 mm 1 m/S 761 mmHg 34%
    15:00 +30°C° 0 mm 1 m/S 760 mmHg 33%
    16:00 +28°C° 0 mm 1 m/S 760 mmHg 41%
    17:00 +26°C° 0 mm 1 m/S 760 mmHg 48%
    18:00 +23°C° 0 mm 1 m/S 760 mmHg 56%
    19:00 +23°C° 0 mm 1 m/S 760 mmHg 61%
    20:00 +22°C° 0 mm 1 m/S 760 mmHg 65%
    21:00 +21°C° 0 mm 1 m/S 760 mmHg 69%
    22:00 +21°C° 0 mm 1 m/S 760 mmHg 73%
    23:00 +20°C° 0 mm 2 m/S 760 mmHg 77%

    Morgen, 13 Dezember, Donnerstag

    Zeit Temperatur Niederschläge Wind Luftdruck Luftfeuchtigkeit
    00:00 +21°C° 0 mm 2 m/S 760 mmHg 81%
    01:00 +20°C° 0 mm 2 m/S 759 mmHg 85%
    02:00 +21°C° 0 mm 1 m/S 759 mmHg 89%
    03:00 +21°C° 0 mm 1 m/S 759 mmHg 93%
    04:00 +21°C° 0 mm 1 m/S 759 mmHg 94%
    05:00 +21°C° 0 mm 1 m/S 759 mmHg 95%
    06:00 +20°C° 0 mm 2 m/S 759 mmHg 96%
    07:00 +23°C° 0 mm 2 m/S 759 mmHg 88%
    08:00 +25°C° 0 mm 3 m/S 759 mmHg 80%
    09:00 +27°C° 0 mm 3 m/S 759 mmHg 73%
    10:00 +29°C° 0 mm 3 m/S 759 mmHg 66%
    11:00 +31°C° 0 mm 2 m/S 758 mmHg 59%
    12:00 +34°C° 0 mm 2 m/S 758 mmHg 52%
    13:00 +35°C° 0 mm 2 m/S 757 mmHg 49%
    14:00 +35°C° 0 mm 1 m/S 756 mmHg 47%
    15:00 +35°C° 0 mm 1 m/S 756 mmHg 44%
    16:00 +33°C° 0 mm 1 m/S 756 mmHg 53%
    17:00 +31°C° 0 mm 1 m/S 756 mmHg 62%
    18:00 +28°C° 0 mm 1 m/S 756 mmHg 70%
    19:00 +27°C° 0.1 mm 1 m/S 757 mmHg 75%
    20:00 +26°C° 0.1 mm 1 m/S 757 mmHg 81%
    21:00 +25°C° 0.1 mm 1 m/S 758 mmHg 86%
    22:00 +25°C° 0.3 mm 1 m/S 758 mmHg 90%
    23:00 +22°C° 0.3 mm 0 m/S 758 mmHg 93%

    übermorgen, 14 Dezember, Freitag

    Zeit Temperatur Niederschläge Wind Luftdruck Luftfeuchtigkeit
    00:00 +21°C° 0.3 mm 0 m/S 759 mmHg 97%
    01:00 +21°C° 0.5 mm 0 m/S 758 mmHg 97%
    02:00 +21°C° 0.5 mm 0 m/S 758 mmHg 98%
    03:00 +21°C° 0.5 mm 0 m/S 758 mmHg 99%
    04:00 +21°C° 0.5 mm 0 m/S 759 mmHg 99%
    05:00 +20°C° 0.5 mm 0 m/S 759 mmHg 99%
    06:00 +20°C° 0.5 mm 0 m/S 759 mmHg 99%
    07:00 +23°C° 0.2 mm 1 m/S 760 mmHg 95%
    08:00 +24°C° 0.2 mm 2 m/S 761 mmHg 92%
    09:00 +26°C° 0.2 mm 2 m/S 762 mmHg 88%
    10:00 +25°C° 0.2 mm 3 m/S 762 mmHg 85%
    11:00 +25°C° 0.2 mm 3 m/S 762 mmHg 83%
    12:00 +25°C° 0.2 mm 3 m/S 762 mmHg 80%
    13:00 +25°C° 0 mm 3 m/S 762 mmHg 73%
    14:00 +26°C° 0 mm 3 m/S 761 mmHg 66%
    15:00 +26°C° 0 mm 3 m/S 761 mmHg 58%
    16:00 +25°C° 0 mm 3 m/S 762 mmHg 61%
    17:00 +24°C° 0 mm 2 m/S 762 mmHg 63%
    18:00 +23°C° 0 mm 2 m/S 763 mmHg 66%
    19:00 +22°C° 0 mm 1 m/S 763 mmHg 69%
    20:00 +21°C° 0 mm 1 m/S 764 mmHg 72%
    21:00 +20°C° 0 mm 1 m/S 764 mmHg 75%
    22:00 +20°C° 0 mm 1 m/S 764 mmHg 76%
    23:00 +20°C° 0 mm 1 m/S 764 mmHg 78%

    15 Dezember, Samstag

    Zeit Temperatur Niederschläge Wind Luftdruck Luftfeuchtigkeit
    00:00 +19°C° 0 mm 1 m/S 764 mmHg 79%
    01:00 +19°C° 0 mm 1 m/S 764 mmHg 80%
    02:00 +19°C° 0 mm 1 m/S 764 mmHg 80%
    03:00 +19°C° 0 mm 1 m/S 764 mmHg 80%
    04:00 +19°C° 0 mm 1 m/S 764 mmHg 80%
    05:00 +19°C° 0 mm 1 m/S 764 mmHg 81%
    06:00 +19°C° 0 mm 1 m/S 765 mmHg 81%
    07:00 +20°C° 0 mm 1 m/S 765 mmHg 73%
    08:00 +21°C° 0 mm 2 m/S 766 mmHg 64%
    09:00 +24°C° 0 mm 2 m/S 766 mmHg 56%
    10:00 +25°C° 0 mm 2 m/S 766 mmHg 52%
    11:00 +26°C° 0 mm 2 m/S 765 mmHg 49%
    12:00 +27°C° 0 mm 2 m/S 765 mmHg 46%
    13:00 +27°C° 0 mm 2 m/S 764 mmHg 46%
    14:00 +27°C° 0 mm 2 m/S 764 mmHg 46%
    15:00 +27°C° 0 mm 2 m/S 763 mmHg 46%
    16:00 +25°C° 0 mm 2 m/S 763 mmHg 53%
    17:00 +23°C° 0 mm 1 m/S 764 mmHg 60%
    18:00 +21°C° 0 mm 1 m/S 764 mmHg 67%
    19:00 +20°C° 0 mm 1 m/S 765 mmHg 70%
    20:00 +18°C° 0 mm 0 m/S 765 mmHg 73%
    21:00 +17°C° 0 mm 0 m/S 766 mmHg 76%
    22:00 +16°C° 0 mm 0 m/S 765 mmHg 78%
    23:00 +16°C° 0 mm 0 m/S 765 mmHg 79%

    16 Dezember, Sonntag

    Zeit Temperatur Niederschläge Wind Luftdruck Luftfeuchtigkeit
    00:00 +16°C° 0 mm 0 m/S 765 mmHg 81%
    01:00 +15°C° 0 mm 0 m/S 765 mmHg 82%
    02:00 +15°C° 0 mm 0 m/S 765 mmHg 83%
    03:00 +15°C° 0 mm 0 m/S 764 mmHg 84%
    04:00 +15°C° 0 mm 0 m/S 765 mmHg 85%
    05:00 +15°C° 0 mm 0 m/S 765 mmHg 86%
    06:00 +14°C° 0 mm 0 m/S 765 mmHg 87%
    07:00 +17°C° 0 mm 0 m/S 766 mmHg 77%
    08:00 +19°C° 0 mm 0 m/S 766 mmHg 68%
    09:00 +24°C° 0 mm 1 m/S 767 mmHg 58%
    10:00 +25°C° 0 mm 1 m/S 766 mmHg 54%
    11:00 +26°C° 0 mm 1 m/S 766 mmHg 51%
    12:00 +26°C° 0 mm 1 m/S 765 mmHg 48%
    13:00 +26°C° 0 mm 1 m/S 764 mmHg 48%
    14:00 +26°C° 0 mm 2 m/S 764 mmHg 49%
    15:00 +26°C° 0 mm 2 m/S 763 mmHg 49%
    16:00 +25°C° 0 mm 1 m/S 764 mmHg 56%
    17:00 +23°C° 0 mm 1 m/S 764 mmHg 62%
    18:00 +21°C° 0 mm 1 m/S 764 mmHg 69%
    19:00 +21°C° 0 mm 1 m/S 765 mmHg 72%
    20:00 +20°C° 0 mm 1 m/S 765 mmHg 75%
    21:00 +19°C° 0 mm 1 m/S 766 mmHg 79%
    22:00 +19°C° 0 mm 1 m/S 765 mmHg 80%
    23:00 +18°C° 0 mm 1 m/S 765 mmHg 82%

    17 Dezember, Montag

    Zeit Temperatur Niederschläge Wind Luftdruck Luftfeuchtigkeit
    00:00 +18°C° 0 mm 1 m/S 765 mmHg 83%
    01:00 +18°C° 0 mm 1 m/S 765 mmHg 83%
    02:00 +18°C° 0 mm 1 m/S 765 mmHg 82%
    03:00 +18°C° 0 mm 1 m/S 765 mmHg 82%
    04:00 +16°C° 0 mm 1 m/S 765 mmHg 83%
    05:00 +15°C° 0 mm 0 m/S 765 mmHg 84%
    06:00 +15°C° 0 mm 0 m/S 766 mmHg 85%
    07:00 +17°C° 0 mm 0 m/S 766 mmHg 77%
    08:00 +21°C° 0 mm 1 m/S 766 mmHg 69%
    09:00 +23°C° 0 mm 1 m/S 767 mmHg 61%
    10:00 +24°C° 0 mm 1 m/S 766 mmHg 57%
    11:00 +26°C° 0 mm 1 m/S 765 mmHg 52%
    12:00 +27°C° 0 mm 1 m/S 765 mmHg 48%
    13:00 +27°C° 0 mm 1 m/S 764 mmHg 48%
    14:00 +27°C° 0 mm 2 m/S 763 mmHg 49%
    15:00 +27°C° 0 mm 2 m/S 763 mmHg 50%
    16:00 +25°C° 0 mm 1 m/S 763 mmHg 56%
    17:00 +24°C° 0 mm 1 m/S 763 mmHg 62%
    18:00 +22°C° 0 mm 1 m/S 764 mmHg 68%
    19:00 +21°C° 0 mm 1 m/S 764 mmHg 74%
    20:00 +21°C° 0 mm 1 m/S 764 mmHg 79%
    21:00 +20°C° 0 mm 1 m/S 765 mmHg 84%
    22:00 +19°C° 0 mm 1 m/S 764 mmHg 88%
    23:00 +19°C° 0 mm 1 m/S 764 mmHg 92%
    Mehr zeigen